Precipitable_Water
0.90 0.96 1.00 1.03 1.06 1.08 1.12 1.26 1.39 1.42 1.42 1.42 1.39 1.35 1.30 1.14 1.04 1.03 1.03 0.99 1.07 1.06
0.84 0.89 0.93 0.97 0.99 1.03 1.11 1.17 1.27 1.39 1.38 1.41 1.39 1.37 1.34 1.23 1.11 1.08 1.09 1.09 1.13 1.10
0.80 0.87 0.91 0.93 0.91 0.99 1.08 1.13 1.15 1.24 1.33 1.37 1.40 1.39 1.37 1.33 1.24 1.14 1.16 1.17 1.11 1.12
0.77 0.84 0.90 0.90 0.92 0.94 1.00 1.07 1.10 1.14 1.18 1.23 1.30 1.32 1.31 1.32 1.32 1.23 1.13 1.14 1.15 1.12
0.85 0.83 0.84 0.88 0.92 0.96 0.94 0.98 1.01 1.03 1.02 1.05 1.09 1.13 1.12 1.10 1.13 1.14 1.14 1.16 1.13 1.11
1.01 0.94 0.87 0.85 0.89 0.95 0.96 0.97 0.98 0.98 0.96 0.96 0.96 0.98 0.98 1.01 1.02 1.03 1.05 1.07 1.06 1.06
1.13 1.13 1.10 1.05 0.99 0.94 0.94 0.96 0.98 0.99 1.00 1.01 1.01 1.00 1.00 0.99 0.98 0.98 1.00 1.01 1.01 1.01
1.15 1.17 1.17 1.16 1.15 1.15 1.14 1.09 1.06 1.03 1.00 1.00 1.00 1.01 0.99 0.99 0.99 0.99 1.00 1.03 1.04 1.03
1.07 1.08 1.10 1.11 1.12 1.13 1.14 1.15 1.18 1.18 1.18 1.19 1.16 1.10 1.12 1.11 1.07 1.03 0.98 0.95 0.99 1.01
0.95 0.94 0.95 0.98 1.00 1.01 1.03 1.06 1.05 1.05 1.06 1.06 1.05 1.06 1.08 1.10 1.13 1.13 1.14 1.14 1.13 1.10
0.70 0.70 0.71 0.73 0.74 0.76 0.81 0.82 0.83 0.84 0.87 0.88 0.91 0.96 1.00 1.03 1.07 1.10 1.13 1.15 1.16 1.12
0.58 0.55 0.55 0.54 0.55 0.57 0.58 0.59 0.60 0.61 0.61 0.61 0.63 0.66 0.69 0.72 0.77 0.81 0.85 0.88 0.91 0.91
0.52 0.48 0.48 0.48 0.49 0.48 0.47 0.45 0.45 0.45 0.46 0.46 0.46 0.48 0.49 0.51 0.52 0.52 0.53 0.56 0.59 0.62
0.49 0.48 0.47 0.46 0.45 0.44 0.44 0.44 0.43 0.43 0.42 0.42 0.41 0.41 0.41 0.43 0.43 0.42 0.41 0.41 0.42 0.44
Wind_Speed
9 8 8 8 9 10 12 15 19 22 25 24 28 30 29 29 29 29 30 30 30 30
10 9 8 7 7 7 8 10 16 21 21 22 23 27 27 28 29 30 30 30 31 31
10 9 9 7 6 6 6 8 10 15 19 22 23 23 25 28 28 29 29 29 31 30
11 10 10 9 8 7 6 8 10 12 13 16 20 21 20 23 26 28 29 29 31 32
12 11 11 10 10 9 8 8 10 11 12 13 16 17 19 19 21 24 28 29 30 32
12 12 12 11 11 11 10 10 11 12 13 13 15 16 18 19 21 22 24 26 28 29
14 14 13 13 13 13 13 13 14 14 15 16 17 19 20 21 22 23 25 26 28 29
11 12 12 12 13 13 14 15 15 16 18 19 20 22 24 25 27 28 29 30 31 32
11 11 12 12 13 13 13 13 15 18 20 21 22 22 25 28 29 30 31 32 34 35
11 11 11 11 12 13 15 16 17 18 19 20 22 24 26 28 30 32 33 35 36 38
13 13 13 13 14 15 17 18 19 20 21 22 24 26 27 29 31 33 35 38 40 42
14 14 15 15 16 16 17 18 19 20 21 22 24 26 28 30 32 33 34 34 37 40
14 15 16 16 17 17 17 17 18 18 20 21 24 25 27 28 29 30 31 33 35 38
15 15 16 16 17 17 18 19 19 20 21 22 23 24 25 25 27 28 29 30 32 34
Wind_Direction
220 221 223 226 234 241 241 233 224 218 218 225 223 222 229 231 233 235 237 237 237 240
221 221 223 231 237 239 234 229 216 214 219 222 220 222 228 232 236 238 239 239 241 245
220 220 221 223 227 232 228 217 209 212 220 222 224 227 237 236 240 240 240 241 244 247
221 221 221 224 225 227 227 219 214 214 218 221 223 232 238 239 240 240 241 244 246 249
224 225 227 229 230 230 231 225 218 218 222 225 228 233 237 239 240 246 243 247 250 253
226 229 233 235 236 236 236 234 230 229 231 233 235 239 242 244 245 248 248 250 252 254
232 235 238 240 240 240 242 243 243 243 244 245 247 249 250 251 252 254 255 256 257 257
233 236 239 241 245 246 246 249 251 251 252 254 256 257 257 258 260 261 261 262 262 262
236 239 243 245 250 253 254 259 260 259 259 259 260 267 266 265 264 264 265 265 266 266
240 243 248 250 254 259 262 264 266 268 268 266 267 273 273 271 269 268 268 269 269 269
245 248 254 259 262 266 267 269 271 271 272 272 274 278 278 276 274 274 273 272 272 272
252 254 258 265 269 271 271 274 275 275 276 277 280 284 283 280 277 276 277 277 277 277
257 258 261 267 270 271 274 275 278 279 280 283 285 291 290 287 282 281 281 282 281 283
261 263 265 270 273 271 273 277 280 280 283 285 289 291 294 292 287 285 285 286 286 288